owner,sensor,date,latitude,longitude,sea_surface_height_above_sea_level,qcFlag 
TCOON,ioos:station:TCOON:005:1,2014-02-01T00:06:00Z,27.6346,-97.2370,0.939,1111122 
TCOON,ioos:station:TCOON:005:1,2014-02-01T00:36:00Z,27.6346,-97.2370,0.945,1111122 
TCOON,ioos:station:TCOON:005:1,2014-02-01T01:06:00Z,27.6346,-97.2370,0.949,1111122 
TCOON,ioos:station:TCOON:005:1,2014-02-01T01:36:00Z,27.6346,-97.2370,0.953,1111122 
TCOON,ioos:station:TCOON:005:1,2014-02-01T02:06:00Z,27.6346,-97.2370,0.958,1111122 
TCOON,ioos:station:TCOON:005:1,2014-02-01T02:36:00Z,27.6346,-97.2370,0.964,1111122 
TCOON,ioos:station:TCOON:005:1,2014-02-01T03:06:00Z,27.6346,-97.2370,0.969,1111122 
TCOON,ioos:station:TCOON:005:1,2014-02-01T03:36:00Z,27.6346,-97.2370,0.974,1111122 
TCOON,ioos:station:TCOON:005:1,2014-02-01T04:06:00Z,27.6346,-97.2370,0.978,1111122 
TCOON,ioos:station:TCOON:005:1,2014-02-01T04:36:00Z,27.6346,-97.2370,0.977,1111122 
TCOON,ioos:station:TCOON:005:1,2014-02-01T05:06:00Z,27.6346,-97.2370,0.98,1111122 
TCOON,ioos:station:TCOON:005:1,2014-02-01T05:54:00Z,27.6346,-97.2370,0.985,1111122 
TCOON,ioos:station:TCOON:005:1,2014-02-01T06:36:00Z,27.6346,-97.2370,0.993,1111122 
TCOON,ioos:station:TCOON:005:1,2014-02-01T07:06:00Z,27.6346,-97.2370,0.998,1111122 
TCOON,ioos:station:TCOON:005:1,2014-02-01T07:36:00Z,27.6346,-97.2370,1.001,1111122 
TCOON,ioos:station:TCOON:005:1,2014-02-01T08:06:00Z,27.6346,-97.2370,1.002,1111122 
TCOON,ioos:station:TCOON:005:1,2014-02-01T08:36:00Z,27.6346,-97.2370,1.006,1111122 
TCOON,ioos:station:TCOON:005:1,2014-02-01T09:06:00Z,27.6346,-97.2370,1.009,1111122 
TCOON,ioos:station:TCOON:005:1,2014-02-01T09:36:00Z,27.6346,-97.2370,1.011,1111122 
TCOON,ioos:station:TCOON:005:1,2014-02-01T10:06:00Z,27.6346,-97.2370,1.018,1111122 
TCOON,ioos:station:TCOON:005:1,2014-02-01T10:36:00Z,27.6346,-97.2370,1.018,1111122 
TCOON,ioos:station:TCOON:005:1,2014-02-01T11:06:00Z,27.6346,-97.2370,1.013,1111122 
TCOON,ioos:station:TCOON:005:1,2014-02-01T11:36:00Z,27.6346,-97.2370,1.007,1111122 
TCOON,ioos:station:TCOON:005:1,2014-02-01T12:06:00Z,27.6346,-97.2370,1.009,1111122 
TCOON,ioos:station:TCOON:005:1,2014-02-01T12:42:00Z,27.6346,-97.2370,1.011,1111122 
TCOON,ioos:station:TCOON:005:1,2014-02-01T13:06:00Z,27.6346,-97.2370,1.008,1111122 
TCOON,ioos:station:TCOON:005:1,2014-02-01T13:36:00Z,27.6346,-97.2370,1.006,1111122 
TCOON,ioos:station:TCOON:005:1,2014-02-01T14:06:00Z,27.6346,-97.2370,1.007,1111122 
TCOON,ioos:station:TCOON:005:1,2014-02-01T14:36:00Z,27.6346,-97.2370,1.014,1111122 
TCOON,ioos:station:TCOON:005:1,2014-02-01T15:06:00Z,27.6346,-97.2370,1.013,1111122 
TCOON,ioos:station:TCOON:005:1,2014-02-01T15:30:00Z,27.6346,-97.2370,1.003,1111122 
TCOON,ioos:station:TCOON:005:1,2014-02-01T16:06:00Z,27.6346,-97.2370,0.992,1111122 
TCOON,ioos:station:TCOON:005:1,2014-02-01T16:36:00Z,27.6346,-97.2370,0.987,1111122 
TCOON,ioos:station:TCOON:005:1,2014-02-01T17:06:00Z,27.6346,-97.2370,0.979,1111122 
TCOON,ioos:station:TCOON:005:1,2014-02-01T17:30:00Z,27.6346,-97.2370,0.972,1111122 
TCOON,ioos:station:TCOON:005:1,2014-02-01T18:00:00Z,27.6346,-97.2370,0.961,1111122 
TCOON,ioos:station:TCOON:005:1,2014-02-01T18:36:00Z,27.6346,-97.2370,0.946,1111122 
TCOON,ioos:station:TCOON:005:1,2014-02-01T19:06:00Z,27.6346,-97.2370,0.947,1111122 
TCOON,ioos:station:TCOON:005:1,2014-02-01T19:36:00Z,27.6346,-97.2370,0.935,1111122 
TCOON,ioos:station:TCOON:005:1,2014-02-01T20:06:00Z,27.6346,-97.2370,0.934,1111122 
TCOON,ioos:station:TCOON:005:1,2014-02-01T20:36:00Z,27.6346,-97.2370,0.934,1111122 
TCOON,ioos:station:TCOON:005:1,2014-02-01T21:06:00Z,27.6346,-97.2370,0.94,1111122 
TCOON,ioos:station:TCOON:005:1,2014-02-01T21:36:00Z,27.6346,-97.2370,0.942,1111122 
TCOON,ioos:station:TCOON:005:1,2014-02-01T22:00:00Z,27.6346,-97.2370,0.945,1111122 
TCOON,ioos:station:TCOON:005:1,2014-02-01T22:36:00Z,27.6346,-97.2370,0.95,1111122 
TCOON,ioos:station:TCOON:005:1,2014-02-01T23:06:00Z,27.6346,-97.2370,0.947,1111122 
TCOON,ioos:station:TCOON:005:1,2014-02-01T23:36:00Z,27.6346,-97.2370,0.945,1111122 
TCOON,ioos:station:TCOON:005:1,2014-02-02T00:06:00Z,27.6346,-97.2370,0.949,1111122 
TCOON,ioos:station:TCOON:005:1,2014-02-02T00:36:00Z,27.6346,-97.2370,0.955,1111122 
TCOON,ioos:station:TCOON:005:1,2014-02-02T01:00:00Z,27.6346,-97.2370,0.958,1111122 
TCOON,ioos:station:TCOON:005:1,2014-02-02T01:36:00Z,27.6346,-97.2370,0.961,1111122 
TCOON,ioos:station:TCOON:005:1,2014-02-02T02:06:00Z,27.6346,-97.2370,0.963,1111122 
TCOON,ioos:station:TCOON:005:1,2014-02-02T02:36:00Z,27.6346,-97.2370,0.965,1111122 
TCOON,ioos:station:TCOON:005:1,2014-02-02T03:06:00Z,27.6346,-97.2370,0.969,1111122 
TCOON,ioos:station:TCOON:005:1,2014-02-02T03:36:00Z,27.6346,-97.2370,0.969,1111122 
TCOON,ioos:station:TCOON:005:1,2014-02-02T04:06:00Z,27.6346,-97.2370,0.977,1111122 
TCOON,ioos:station:TCOON:005:1,2014-02-02T04:36:00Z,27.6346,-97.2370,0.975,1111122 
TCOON,ioos:station:TCOON:005:1,2014-02-02T05:06:00Z,27.6346,-97.2370,0.98,1111122 
TCOON,ioos:station:TCOON:005:1,2014-02-02T05:36:00Z,27.6346,-97.2370,0.981,1111122 
TCOON,ioos:station:TCOON:005:1,2014-02-02T06:06:00Z,27.6346,-97.2370,0.984,1111122 
TCOON,ioos:station:TCOON:005:1,2014-02-02T06:36:00Z,27.6346,-97.2370,0.987,1111122 
TCOON,ioos:station:TCOON:005:1,2014-02-02T07:06:00Z,27.6346,-97.2370,0.986,1111122 
TCOON,ioos:station:TCOON:005:1,2014-02-02T07:36:00Z,27.6346,-97.2370,0.985,1111122 
TCOON,ioos:station:TCOON:005:1,2014-02-02T08:06:00Z,27.6346,-97.2370,0.983,1111122 
TCOON,ioos:station:TCOON:005:1,2014-02-02T08:36:00Z,27.6346,-97.2370,0.986,1111122 
TCOON,ioos:station:TCOON:005:1,2014-02-02T09:06:00Z,27.6346,-97.2370,0.984,1111122 
TCOON,ioos:station:TCOON:005:1,2014-02-02T09:36:00Z,27.6346,-97.2370,0.987,1111122 
TCOON,ioos:station:TCOON:005:1,2014-02-02T10:06:00Z,27.6346,-97.2370,0.989,1111122 
TCOON,ioos:station:TCOON:005:1,2014-02-02T10:36:00Z,27.6346,-97.2370,0.992,1111122 
TCOON,ioos:station:TCOON:005:1,2014-02-02T11:06:00Z,27.6346,-97.2370,0.994,1111122 
TCOON,ioos:station:TCOON:005:1,2014-02-02T11:36:00Z,27.6346,-97.2370,0.998,1111122 
TCOON,ioos:station:TCOON:005:1,2014-02-02T12:06:00Z,27.6346,-97.2370,1.0,1111122 
TCOON,ioos:station:TCOON:005:1,2014-02-02T12:36:00Z,27.6346,-97.2370,1.0,1111122 
TCOON,ioos:station:TCOON:005:1,2014-02-02T13:06:00Z,27.6346,-97.2370,1.001,1111122 
TCOON,ioos:station:TCOON:005:1,2014-02-02T13:36:00Z,27.6346,-97.2370,1.003,1111122 
TCOON,ioos:station:TCOON:005:1,2014-02-02T14:06:00Z,27.6346,-97.2370,0.999,1111122 
TCOON,ioos:station:TCOON:005:1,2014-02-02T14:36:00Z,27.6346,-97.2370,0.996,1111122 
TCOON,ioos:station:TCOON:005:1,2014-02-02T15:06:00Z,27.6346,-97.2370,0.995,1111122 
TCOON,ioos:station:TCOON:005:1,2014-02-02T15:36:00Z,27.6346,-97.2370,0.992,1111122 
TCOON,ioos:station:TCOON:005:1,2014-02-02T16:06:00Z,27.6346,-97.2370,0.988,1111122 
TCOON,ioos:station:TCOON:005:1,2014-02-02T17:06:00Z,27.6346,-97.2370,0.974,1111122 
TCOON,ioos:station:TCOON:005:1,2014-02-02T17:36:00Z,27.6346,-97.2370,0.967,1111122 
TCOON,ioos:station:TCOON:005:1,2014-02-02T18:06:00Z,27.6346,-97.2370,0.956,1111122 
TCOON,ioos:station:TCOON:005:1,2014-02-02T18:36:00Z,27.6346,-97.2370,0.971,1111122 
TCOON,ioos:station:TCOON:005:1,2014-02-02T19:06:00Z,27.6346,-97.2370,0.976,1111122 
TCOON,ioos:station:TCOON:005:1,2014-02-02T19:36:00Z,27.6346,-97.2370,1.009,1111122 
TCOON,ioos:station:TCOON:005:1,2014-02-02T20:06:00Z,27.6346,-97.2370,0.977,1111122 
TCOON,ioos:station:TCOON:005:1,2014-02-02T20:36:00Z,27.6346,-97.2370,0.964,1111122 
TCOON,ioos:station:TCOON:005:1,2014-02-02T21:24:00Z,27.6346,-97.2370,0.961,1111122 
TCOON,ioos:station:TCOON:005:1,2014-02-02T22:00:00Z,27.6346,-97.2370,0.969,1111122 
TCOON,ioos:station:TCOON:005:1,2014-02-02T22:36:00Z,27.6346,-97.2370,0.968,1111122 
TCOON,ioos:station:TCOON:005:1,2014-02-02T23:06:00Z,27.6346,-97.2370,0.974,1111122 
TCOON,ioos:station:TCOON:005:1,2014-02-02T23:36:00Z,27.6346,-97.2370,0.959,1111122 
TCOON,ioos:station:TCOON:005:1,2014-02-03T00:06:00Z,27.6346,-97.2370,0.945,1111122 
TCOON,ioos:station:TCOON:005:1,2014-02-03T00:36:00Z,27.6346,-97.2370,0.94,1111122 
TCOON,ioos:station:TCOON:005:1,2014-02-03T01:06:00Z,27.6346,-97.2370,0.941,1111122 
TCOON,ioos:station:TCOON:005:1,2014-02-03T01:36:00Z,27.6346,-97.2370,0.934,1111122 
TCOON,ioos:station:TCOON:005:1,2014-02-03T02:06:00Z,27.6346,-97.2370,0.928,1111122 
TCOON,ioos:station:TCOON:005:1,2014-02-03T02:36:00Z,27.6346,-97.2370,0.929,1111122 
TCOON,ioos:station:TCOON:005:1,2014-02-03T03:06:00Z,27.6346,-97.2370,0.928,1111122 
TCOON,ioos:station:TCOON:005:1,2014-02-03T04:36:00Z,27.6346,-97.2370,0.921,1111122 
TCOON,ioos:station:TCOON:005:1,2014-02-03T05:06:00Z,27.6346,-97.2370,0.915,1111122 
TCOON,ioos:station:TCOON:005:1,2014-02-03T06:06:00Z,27.6346,-97.2370,0.921,1111122 
TCOON,ioos:station:TCOON:005:1,2014-02-03T06:36:00Z,27.6346,-97.2370,0.92,1111122 
TCOON,ioos:station:TCOON:005:1,2014-02-03T07:06:00Z,27.6346,-97.2370,0.919,1111122 
TCOON,ioos:station:TCOON:005:1,2014-02-03T07:36:00Z,27.6346,-97.2370,0.917,1111122 
TCOON,ioos:station:TCOON:005:1,2014-02-03T08:06:00Z,27.6346,-97.2370,0.916,1111122 
TCOON,ioos:station:TCOON:005:1,2014-02-03T08:36:00Z,27.6346,-97.2370,0.922,1111122 
TCOON,ioos:station:TCOON:005:1,2014-02-03T09:06:00Z,27.6346,-97.2370,0.925,1111122 
TCOON,ioos:station:TCOON:005:1,2014-02-03T10:00:00Z,27.6346,-97.2370,0.916,1111122 
TCOON,ioos:station:TCOON:005:1,2014-02-03T10:36:00Z,27.6346,-97.2370,0.914,1111122 
TCOON,ioos:station:TCOON:005:1,2014-02-03T11:06:00Z,27.6346,-97.2370,0.906,1111122 
TCOON,ioos:station:TCOON:005:1,2014-02-03T11:36:00Z,27.6346,-97.2370,0.905,1111122 
TCOON,ioos:station:TCOON:005:1,2014-02-03T12:24:00Z,27.6346,-97.2370,0.905,1111122 
TCOON,ioos:station:TCOON:005:1,2014-02-03T13:06:00Z,27.6346,-97.2370,0.907,1111122 
TCOON,ioos:station:TCOON:005:1,2014-02-03T13:36:00Z,27.6346,-97.2370,0.903,1111122 
TCOON,ioos:station:TCOON:005:1,2014-02-03T14:06:00Z,27.6346,-97.2370,0.902,1111122 
TCOON,ioos:station:TCOON:005:1,2014-02-03T14:36:00Z,27.6346,-97.2370,0.9,1111122 
TCOON,ioos:station:TCOON:005:1,2014-02-03T15:06:00Z,27.6346,-97.2370,0.9,1111122 
TCOON,ioos:station:TCOON:005:1,2014-02-03T15:36:00Z,27.6346,-97.2370,0.903,1111122 
TCOON,ioos:station:TCOON:005:1,2014-02-03T17:06:00Z,27.6346,-97.2370,0.896,1111122 
TCOON,ioos:station:TCOON:005:1,2014-02-03T17:36:00Z,27.6346,-97.2370,0.892,1111122 
TCOON,ioos:station:TCOON:005:1,2014-02-03T18:36:00Z,27.6346,-97.2370,0.88,1111122 
TCOON,ioos:station:TCOON:005:1,2014-02-03T19:06:00Z,27.6346,-97.2370,0.875,1111122 
TCOON,ioos:station:TCOON:005:1,2014-02-03T19:36:00Z,27.6346,-97.2370,0.872,1111122 
TCOON,ioos:station:TCOON:005:1,2014-02-03T20:06:00Z,27.6346,-97.2370,0.865,1111122 
TCOON,ioos:station:TCOON:005:1,2014-02-03T20:36:00Z,27.6346,-97.2370,0.859,1111122 
TCOON,ioos:station:TCOON:005:1,2014-02-03T21:06:00Z,27.6346,-97.2370,0.856,1111122 
TCOON,ioos:station:TCOON:005:1,2014-02-03T21:36:00Z,27.6346,-97.2370,0.849,1111122 
TCOON,ioos:station:TCOON:005:1,2014-02-03T22:06:00Z,27.6346,-97.2370,0.844,1111122 
TCOON,ioos:station:TCOON:005:1,2014-02-03T22:48:00Z,27.6346,-97.2370,0.842,1111122 
TCOON,ioos:station:TCOON:005:1,2014-02-04T00:18:00Z,27.6346,-97.2370,0.849,1111122 
TCOON,ioos:station:TCOON:005:1,2014-02-04T01:06:00Z,27.6346,-97.2370,0.853,1111122 
TCOON,ioos:station:TCOON:005:1,2014-02-04T01:36:00Z,27.6346,-97.2370,0.853,1111122 
TCOON,ioos:station:TCOON:005:1,2014-02-04T02:06:00Z,27.6346,-97.2370,0.856,1111122 
TCOON,ioos:station:TCOON:005:1,2014-02-04T02:36:00Z,27.6346,-97.2370,0.856,1111122 
TCOON,ioos:station:TCOON:005:1,2014-02-04T03:06:00Z,27.6346,-97.2370,0.852,1111122 
TCOON,ioos:station:TCOON:005:1,2014-02-04T03:36:00Z,27.6346,-97.2370,0.851,1111122 
TCOON,ioos:station:TCOON:005:1,2014-02-04T04:06:00Z,27.6346,-97.2370,0.85,1111122 
TCOON,ioos:station:TCOON:005:1,2014-02-04T05:18:00Z,27.6346,-97.2370,0.851,1111122 
TCOON,ioos:station:TCOON:005:1,2014-02-04T05:36:00Z,27.6346,-97.2370,0.853,1111122 
TCOON,ioos:station:TCOON:005:1,2014-02-04T06:24:00Z,27.6346,-97.2370,0.858,1111122 
TCOON,ioos:station:TCOON:005:1,2014-02-04T06:36:00Z,27.6346,-97.2370,0.858,1111122 
TCOON,ioos:station:TCOON:005:1,2014-02-04T07:06:00Z,27.6346,-97.2370,0.861,1111122 
TCOON,ioos:station:TCOON:005:1,2014-02-14T14:30:00Z,27.6346,-97.2370,0.889,1111122 
TCOON,ioos:station:TCOON:005:1,2014-02-14T15:00:00Z,27.6346,-97.2370,0.884,1111122 
TCOON,ioos:station:TCOON:005:1,2014-02-14T15:30:00Z,27.6346,-97.2370,0.88,1111122 
TCOON,ioos:station:TCOON:005:1,2014-02-14T16:00:00Z,27.6346,-97.2370,0.874,1111122 
TCOON,ioos:station:TCOON:005:1,2014-02-14T16:30:00Z,27.6346,-97.2370,0.867,1111122 
TCOON,ioos:station:TCOON:005:1,2014-02-14T17:00:00Z,27.6346,-97.2370,0.859,1111122 
TCOON,ioos:station:TCOON:005:1,2014-02-14T17:30:00Z,27.6346,-97.2370,0.853,1111122 
TCOON,ioos:station:TCOON:005:1,2014-02-14T18:00:00Z,27.6346,-97.2370,0.853,1111122 
TCOON,ioos:station:TCOON:005:1,2014-02-14T18:30:00Z,27.6346,-97.2370,0.851,1111122 
TCOON,ioos:station:TCOON:005:1,2014-02-14T19:00:00Z,27.6346,-97.2370,0.852,1111122 
TCOON,ioos:station:TCOON:005:1,2014-02-14T19:30:00Z,27.6346,-97.2370,0.862,1111122 
TCOON,ioos:station:TCOON:005:1,2014-02-14T20:00:00Z,27.6346,-97.2370,0.865,1111122 
TCOON,ioos:station:TCOON:005:1,2014-02-14T20:30:00Z,27.6346,-97.2370,0.861,1111122 
TCOON,ioos:station:TCOON:005:1,2014-02-14T21:00:00Z,27.6346,-97.2370,0.862,1111122 
TCOON,ioos:station:TCOON:005:1,2014-02-14T21:30:00Z,27.6346,-97.2370,0.868,1111122 
TCOON,ioos:station:TCOON:005:1,2014-02-14T22:00:00Z,27.6346,-97.2370,0.871,1111122 
TCOON,ioos:station:TCOON:005:1,2014-02-14T22:30:00Z,27.6346,-97.2370,0.876,1111122 
TCOON,ioos:station:TCOON:005:1,2014-02-14T23:00:00Z,27.6346,-97.2370,0.874,1111122 
TCOON,ioos:station:TCOON:005:1,2014-02-14T23:36:00Z,27.6346,-97.2370,0.877,1111122 
TCOON,ioos:station:TCOON:005:1,2014-02-15T00:00:00Z,27.6346,-97.2370,0.876,1111122 
TCOON,ioos:station:TCOON:005:1,2014-02-15T00:30:00Z,27.6346,-97.2370,0.879,1111122 
TCOON,ioos:station:TCOON:005:1,2014-02-15T01:00:00Z,27.6346,-97.2370,0.886,1111122 
TCOON,ioos:station:TCOON:005:1,2014-02-15T01:30:00Z,27.6346,-97.2370,0.888,1111122 
TCOON,ioos:station:TCOON:005:1,2014-02-15T02:00:00Z,27.6346,-97.2370,0.89,1111122 
TCOON,ioos:station:TCOON:005:1,2014-02-15T02:30:00Z,27.6346,-97.2370,0.891,1111122 
TCOON,ioos:station:TCOON:005:1,2014-02-15T03:00:00Z,27.6346,-97.2370,0.895,1111122 
TCOON,ioos:station:TCOON:005:1,2014-02-15T03:30:00Z,27.6346,-97.2370,0.896,1111122 
TCOON,ioos:station:TCOON:005:1,2014-02-15T04:00:00Z,27.6346,-97.2370,0.895,1111122 
TCOON,ioos:station:TCOON:005:1,2014-02-15T04:30:00Z,27.6346,-97.2370,0.899,1111122 
TCOON,ioos:station:TCOON:005:1,2014-02-15T05:00:00Z,27.6346,-97.2370,0.901,1111122 
TCOON,ioos:station:TCOON:005:1,2014-02-15T05:30:00Z,27.6346,-97.2370,0.905,1111122 
TCOON,ioos:station:TCOON:005:1,2014-02-15T06:00:00Z,27.6346,-97.2370,0.905,1111122 
TCOON,ioos:station:TCOON:005:1,2014-02-15T06:30:00Z,27.6346,-97.2370,0.903,1111122 
TCOON,ioos:station:TCOON:005:1,2014-02-15T07:00:00Z,27.6346,-97.2370,0.9,1111122 
TCOON,ioos:station:TCOON:005:1,2014-02-15T07:30:00Z,27.6346,-97.2370,0.896,1111122 
TCOON,ioos:station:TCOON:005:1,2014-02-15T08:00:00Z,27.6346,-97.2370,0.896,1111122 
TCOON,ioos:station:TCOON:005:1,2014-02-15T08:30:00Z,27.6346,-97.2370,0.897,1111122 
TCOON,ioos:station:TCOON:005:1,2014-02-15T09:00:00Z,27.6346,-97.2370,0.893,1111122 
TCOON,ioos:station:TCOON:005:1,2014-02-15T09:30:00Z,27.6346,-97.2370,0.891,1111122 
TCOON,ioos:station:TCOON:005:1,2014-02-15T14:00:00Z,27.6346,-97.2370,0.88,1111122 
TCOON,ioos:station:TCOON:005:1,2014-02-15T14:30:00Z,27.6346,-97.2370,0.873,1111122 
TCOON,ioos:station:TCOON:005:1,2014-02-15T15:00:00Z,27.6346,-97.2370,0.871,1111122 
TCOON,ioos:station:TCOON:005:1,2014-02-15T15:30:00Z,27.6346,-97.2370,0.861,1111122 
TCOON,ioos:station:TCOON:005:1,2014-02-15T16:00:00Z,27.6346,-97.2370,0.847,1111122 
TCOON,ioos:station:TCOON:005:1,2014-02-15T16:30:00Z,27.6346,-97.2370,0.833,1111122 
TCOON,ioos:station:TCOON:005:1,2014-02-15T17:00:00Z,27.6346,-97.2370,0.828,1111122 
TCOON,ioos:station:TCOON:005:1,2014-02-15T17:30:00Z,27.6346,-97.2370,0.824,1111122 
TCOON,ioos:station:TCOON:005:1,2014-02-15T18:00:00Z,27.6346,-97.2370,0.822,1111122 
TCOON,ioos:station:TCOON:005:1,2014-02-15T18:30:00Z,27.6346,-97.2370,0.821,1111122 
TCOON,ioos:station:TCOON:005:1,2014-02-15T19:00:00Z,27.6346,-97.2370,0.819,1111122 
TCOON,ioos:station:TCOON:005:1,2014-02-15T19:30:00Z,27.6346,-97.2370,0.818,1111122 
TCOON,ioos:station:TCOON:005:1,2014-02-15T20:06:00Z,27.6346,-97.2370,0.827,1111122 
TCOON,ioos:station:TCOON:005:1,2014-02-15T20:48:00Z,27.6346,-97.2370,0.829,1111122 
TCOON,ioos:station:TCOON:005:1,2014-02-15T21:36:00Z,27.6346,-97.2370,0.832,1111122 
TCOON,ioos:station:TCOON:005:1,2014-02-15T22:00:00Z,27.6346,-97.2370,0.836,1111122 
TCOON,ioos:station:TCOON:005:1,2014-02-15T22:30:00Z,27.6346,-97.2370,0.834,1111122 
TCOON,ioos:station:TCOON:005:1,2014-02-15T23:00:00Z,27.6346,-97.2370,0.833,1111122 
TCOON,ioos:station:TCOON:005:1,2014-02-15T23:30:00Z,27.6346,-97.2370,0.837,1111122 
TCOON,ioos:station:TCOON:005:1,2014-02-16T00:00:00Z,27.6346,-97.2370,0.839,1111122 
TCOON,ioos:station:TCOON:005:1,2014-02-16T00:30:00Z,27.6346,-97.2370,0.842,1111122 
TCOON,ioos:station:TCOON:005:1,2014-02-16T01:00:00Z,27.6346,-97.2370,0.849,1111122 
TCOON,ioos:station:TCOON:005:1,2014-02-16T01:30:00Z,27.6346,-97.2370,0.855,1111122 
TCOON,ioos:station:TCOON:005:1,2014-02-16T02:00:00Z,27.6346,-97.2370,0.861,1111122 
TCOON,ioos:station:TCOON:005:1,2014-02-16T02:30:00Z,27.6346,-97.2370,0.863,1111122 
TCOON,ioos:station:TCOON:005:1,2014-02-16T03:00:00Z,27.6346,-97.2370,0.866,1111122 
TCOON,ioos:station:TCOON:005:1,2014-02-16T03:30:00Z,27.6346,-97.2370,0.874,1111122 
TCOON,ioos:station:TCOON:005:1,2014-02-16T04:00:00Z,27.6346,-97.2370,0.874,1111122 
TCOON,ioos:station:TCOON:005:1,2014-02-16T04:30:00Z,27.6346,-97.2370,0.874,1111122 
TCOON,ioos:station:TCOON:005:1,2014-02-16T05:00:00Z,27.6346,-97.2370,0.875,1111122 
TCOON,ioos:station:TCOON:005:1,2014-02-16T05:48:00Z,27.6346,-97.2370,0.881,1111122 
TCOON,ioos:station:TCOON:005:1,2014-02-16T06:00:00Z,27.6346,-97.2370,0.883,1111122 
TCOON,ioos:station:TCOON:005:1,2014-02-16T06:30:00Z,27.6346,-97.2370,0.886,1111122 
TCOON,ioos:station:TCOON:005:1,2014-02-16T07:00:00Z,27.6346,-97.2370,0.883,1111122 
TCOON,ioos:station:TCOON:005:1,2014-02-16T07:30:00Z,27.6346,-97.2370,0.882,1111122 
TCOON,ioos:station:TCOON:005:1,2014-02-16T08:00:00Z,27.6346,-97.2370,0.891,1111122 
TCOON,ioos:station:TCOON:005:1,2014-02-16T08:30:00Z,27.6346,-97.2370,0.894,1111122 
TCOON,ioos:station:TCOON:005:1,2014-02-16T09:00:00Z,27.6346,-97.2370,0.89,1111122 
TCOON,ioos:station:TCOON:005:1,2014-02-16T09:30:00Z,27.6346,-97.2370,0.889,1111122 
TCOON,ioos:station:TCOON:005:1,2014-02-16T10:00:00Z,27.6346,-97.2370,0.892,1111122 
TCOON,ioos:station:TCOON:005:1,2014-02-16T11:00:00Z,27.6346,-97.2370,0.885,1111122 
TCOON,ioos:station:TCOON:005:1,2014-02-16T11:30:00Z,27.6346,-97.2370,0.886,1111122 
TCOON,ioos:station:TCOON:005:1,2014-02-16T12:00:00Z,27.6346,-97.2370,0.88,1111122 
TCOON,ioos:station:TCOON:005:1,2014-02-16T12:30:00Z,27.6346,-97.2370,0.88,1111122 
TCOON,ioos:station:TCOON:005:1,2014-02-16T13:00:00Z,27.6346,-97.2370,0.878,1111122 
TCOON,ioos:station:TCOON:005:1,2014-02-16T13:30:00Z,27.6346,-97.2370,0.878,1111122 
TCOON,ioos:station:TCOON:005:1,2014-02-16T14:00:00Z,27.6346,-97.2370,0.875,1111122 
TCOON,ioos:station:TCOON:005:1,2014-02-16T14:30:00Z,27.6346,-97.2370,0.872,1111122 
TCOON,ioos:station:TCOON:005:1,2014-02-16T15:00:00Z,27.6346,-97.2370,0.873,1111122 
TCOON,ioos:station:TCOON:005:1,2014-02-16T15:30:00Z,27.6346,-97.2370,0.87,1111122 
TCOON,ioos:station:TCOON:005:1,2014-02-16T16:00:00Z,27.6346,-97.2370,0.865,1111122 
TCOON,ioos:station:TCOON:005:1,2014-02-16T16:30:00Z,27.6346,-97.2370,0.859,1111122 
TCOON,ioos:station:TCOON:005:1,2014-02-16T17:00:00Z,27.6346,-97.2370,0.85,1111122 
TCOON,ioos:station:TCOON:005:1,2014-02-16T17:30:00Z,27.6346,-97.2370,0.842,1111122 
TCOON,ioos:station:TCOON:005:1,2014-02-16T18:00:00Z,27.6346,-97.2370,0.841,1111122 
TCOON,ioos:station:TCOON:005:1,2014-02-16T18:30:00Z,27.6346,-97.2370,0.84,1111122 
TCOON,ioos:station:TCOON:005:1,2014-02-16T19:00:00Z,27.6346,-97.2370,0.834,1111122 
TCOON,ioos:station:TCOON:005:1,2014-02-16T19:30:00Z,27.6346,-97.2370,0.831,1111122 
TCOON,ioos:station:TCOON:005:1,2014-02-16T20:00:00Z,27.6346,-97.2370,0.831,1111122 
TCOON,ioos:station:TCOON:005:1,2014-02-16T20:36:00Z,27.6346,-97.2370,0.836,1111122 
TCOON,ioos:station:TCOON:005:1,2014-02-16T21:00:00Z,27.6346,-97.2370,0.84,1111122 
TCOON,ioos:station:TCOON:005:1,2014-02-16T21:36:00Z,27.6346,-97.2370,0.844,1111122 
TCOON,ioos:station:TCOON:005:1,2014-02-16T22:00:00Z,27.6346,-97.2370,0.846,1111122 
TCOON,ioos:station:TCOON:005:1,2014-02-16T22:36:00Z,27.6346,-97.2370,0.848,1111122 
TCOON,ioos:station:TCOON:005:1,2014-02-16T23:06:00Z,27.6346,-97.2370,0.846,1111122 
TCOON,ioos:station:TCOON:005:1,2014-02-16T23:36:00Z,27.6346,-97.2370,0.845,1111122 
TCOON,ioos:station:TCOON:005:1,2014-02-17T00:06:00Z,27.6346,-97.2370,0.847,1111122 
TCOON,ioos:station:TCOON:005:1,2014-02-17T00:36:00Z,27.6346,-97.2370,0.852,1111122 
TCOON,ioos:station:TCOON:005:1,2014-02-17T01:06:00Z,27.6346,-97.2370,0.854,1111122 
TCOON,ioos:station:TCOON:005:1,2014-02-17T01:36:00Z,27.6346,-97.2370,0.856,1111122 
TCOON,ioos:station:TCOON:005:1,2014-02-17T02:06:00Z,27.6346,-97.2370,0.856,1111122 
TCOON,ioos:station:TCOON:005:1,2014-02-17T02:36:00Z,27.6346,-97.2370,0.855,1111122 
TCOON,ioos:station:TCOON:005:1,2014-02-17T03:06:00Z,27.6346,-97.2370,0.854,1111122 
TCOON,ioos:station:TCOON:005:1,2014-02-17T03:36:00Z,27.6346,-97.2370,0.855,1111122 
TCOON,ioos:station:TCOON:005:1,2014-02-17T04:06:00Z,27.6346,-97.2370,0.859,1111122 
TCOON,ioos:station:TCOON:005:1,2014-02-17T04:36:00Z,27.6346,-97.2370,0.861,1111122 
TCOON,ioos:station:TCOON:005:1,2014-02-17T05:06:00Z,27.6346,-97.2370,0.863,1111122 
TCOON,ioos:station:TCOON:005:1,2014-02-17T05:36:00Z,27.6346,-97.2370,0.869,1111122 
TCOON,ioos:station:TCOON:005:1,2014-02-17T06:06:00Z,27.6346,-97.2370,0.871,1111122 
TCOON,ioos:station:TCOON:005:1,2014-02-17T06:36:00Z,27.6346,-97.2370,0.873,1111122 
TCOON,ioos:station:TCOON:005:1,2014-02-17T07:06:00Z,27.6346,-97.2370,0.871,1111122 
TCOON,ioos:station:TCOON:005:1,2014-02-17T07:36:00Z,27.6346,-97.2370,0.871,1111122 
TCOON,ioos:station:TCOON:005:1,2014-02-17T08:06:00Z,27.6346,-97.2370,0.871,1111122 
TCOON,ioos:station:TCOON:005:1,2014-02-17T08:36:00Z,27.6346,-97.2370,0.873,1111122 
TCOON,ioos:station:TCOON:005:1,2014-02-17T09:06:00Z,27.6346,-97.2370,0.878,1111122 
TCOON,ioos:station:TCOON:005:1,2014-02-17T09:36:00Z,27.6346,-97.2370,0.881,1111122 
TCOON,ioos:station:TCOON:005:1,2014-02-17T10:06:00Z,27.6346,-97.2370,0.876,1111122 
TCOON,ioos:station:TCOON:005:1,2014-02-17T10:30:00Z,27.6346,-97.2370,0.876,1111122 
TCOON,ioos:station:TCOON:005:1,2014-02-17T11:06:00Z,27.6346,-97.2370,0.879,1111122 
TCOON,ioos:station:TCOON:005:1,2014-02-17T11:36:00Z,27.6346,-97.2370,0.877,1111122 
TCOON,ioos:station:TCOON:005:1,2014-02-17T12:06:00Z,27.6346,-97.2370,0.872,1111122 
TCOON,ioos:station:TCOON:005:1,2014-02-17T12:36:00Z,27.6346,-97.2370,0.867,1111122 
TCOON,ioos:station:TCOON:005:1,2014-02-17T13:06:00Z,27.6346,-97.2370,0.859,1111122 
TCOON,ioos:station:TCOON:005:1,2014-02-17T13:36:00Z,27.6346,-97.2370,0.854,1111122 
TCOON,ioos:station:TCOON:005:1,2014-02-17T14:06:00Z,27.6346,-97.2370,0.849,1111122 
TCOON,ioos:station:TCOON:005:1,2014-02-17T14:30:00Z,27.6346,-97.2370,0.844,1111122 
TCOON,ioos:station:TCOON:005:1,2014-02-17T15:06:00Z,27.6346,-97.2370,0.843,1111122 
TCOON,ioos:station:TCOON:005:1,2014-02-17T15:36:00Z,27.6346,-97.2370,0.842,1111122 
TCOON,ioos:station:TCOON:005:1,2014-02-17T16:06:00Z,27.6346,-97.2370,0.848,1111122 
TCOON,ioos:station:TCOON:005:1,2014-02-17T16:36:00Z,27.6346,-97.2370,0.846,1111122 
TCOON,ioos:station:TCOON:005:1,2014-02-17T17:06:00Z,27.6346,-97.2370,0.84,1111122 
TCOON,ioos:station:TCOON:005:1,2014-02-17T17:36:00Z,27.6346,-97.2370,0.833,1111122 